Year,Month,Day,Hour,Minute,Value (Times are PST for temperature in C)
2014,07,05,00,00,13.40
2014,07,05,00,01,13.40
2014,07,05,00,02,13.40
2014,07,05,00,03,13.40
2014,07,05,00,04,13.40
2014,07,05,00,05,13.40
2014,07,05,00,06,13.40
2014,07,05,00,07,13.40
2014,07,05,00,08,13.40
2014,07,05,00,09,13.40
2014,07,05,00,10,13.40
2014,07,05,00,11,13.40
2014,07,05,00,12,13.40
2014,07,05,00,13,13.30
2014,07,05,00,14,13.30
2014,07,05,00,15,13.30
2014,07,05,00,16,13.20
2014,07,05,00,17,13.20
2014,07,05,00,18,13.10
2014,07,05,00,19,13.10
2014,07,05,00,20,13.00
2014,07,05,00,21,13.00
2014,07,05,00,22,13.00
2014,07,05,00,23,13.00
2014,07,05,00,24,13.00
2014,07,05,00,25,12.90
2014,07,05,00,26,12.90
2014,07,05,00,27,12.90
2014,07,05,00,28,12.90
2014,07,05,00,29,12.90
2014,07,05,00,30,12.90
2014,07,05,00,31,12.90
2014,07,05,00,32,12.90
2014,07,05,00,33,12.90
2014,07,05,00,34,12.90
2014,07,05,00,35,12.90
2014,07,05,00,36,12.90
2014,07,05,00,37,12.90
2014,07,05,00,38,12.80
2014,07,05,00,39,12.80
2014,07,05,00,40,12.80
2014,07,05,00,41,12.80
2014,07,05,00,42,12.80
2014,07,05,00,43,12.80
2014,07,05,00,44,12.80
2014,07,05,00,45,12.80
2014,07,05,00,46,12.80
2014,07,05,00,47,12.80
2014,07,05,00,48,12.80
2014,07,05,00,49,12.80
2014,07,05,00,50,12.80
2014,07,05,00,51,12.80
2014,07,05,00,52,12.80
2014,07,05,00,53,12.80
2014,07,05,00,54,12.80
2014,07,05,00,55,12.80
2014,07,05,00,56,12.80
2014,07,05,00,57,12.80
2014,07,05,00,58,12.80
2014,07,05,00,59,12.80
2014,07,05,01,00,12.80
2014,07,05,01,01,12.80
2014,07,05,01,02,12.80
2014,07,05,01,03,12.80
2014,07,05,01,04,12.80
2014,07,05,01,05,12.80
2014,07,05,01,06,12.80
2014,07,05,01,07,12.80
2014,07,05,01,08,12.80
2014,07,05,01,09,12.80
2014,07,05,01,10,12.80
2014,07,05,01,11,12.80
2014,07,05,01,12,12.80
2014,07,05,01,13,12.80
2014,07,05,01,14,12.80
2014,07,05,01,15,12.80
2014,07,05,01,16,12.80
2014,07,05,01,17,12.80
2014,07,05,01,18,12.80
2014,07,05,01,19,12.80
2014,07,05,01,20,12.80
2014,07,05,01,21,12.80
2014,07,05,01,22,12.80
2014,07,05,01,23,12.80
2014,07,05,01,24,12.90
2014,07,05,01,25,12.90
2014,07,05,01,26,12.90
2014,07,05,01,27,12.90
2014,07,05,01,28,12.90
2014,07,05,01,29,12.90
2014,07,05,01,30,12.90
2014,07,05,01,31,12.90
2014,07,05,01,32,12.90
2014,07,05,01,33,12.90
2014,07,05,01,34,12.90
2014,07,05,01,35,12.90
2014,07,05,01,36,12.90
2014,07,05,01,37,12.90
2014,07,05,01,38,12.90
2014,07,05,01,39,12.90
2014,07,05,01,40,12.90
2014,07,05,01,41,12.90
2014,07,05,01,42,12.90
2014,07,05,01,43,12.90
2014,07,05,01,44,12.90
2014,07,05,01,45,12.90
2014,07,05,01,46,12.90
2014,07,05,01,47,12.90
2014,07,05,01,48,12.90
2014,07,05,01,49,12.90
2014,07,05,01,50,12.90
2014,07,05,01,51,12.90
2014,07,05,01,52,12.90
2014,07,05,01,53,12.90
2014,07,05,01,54,12.90
2014,07,05,01,55,12.90
2014,07,05,01,56,12.90
2014,07,05,01,57,12.90
2014,07,05,01,58,12.90
2014,07,05,01,59,12.90
2014,07,05,02,00,12.90
2014,07,05,02,01,12.90
2014,07,05,02,02,12.90
2014,07,05,02,03,12.90
2014,07,05,02,04,12.90
2014,07,05,02,05,12.90
2014,07,05,02,06,12.90
2014,07,05,02,07,12.90
2014,07,05,02,08,12.90
2014,07,05,02,09,12.80
2014,07,05,02,10,12.80
2014,07,05,02,11,12.80
2014,07,05,02,12,12.80
2014,07,05,02,13,12.80
2014,07,05,02,14,12.80
2014,07,05,02,15,12.80
2014,07,05,02,16,12.70
2014,07,05,02,17,12.70
2014,07,05,02,18,12.70
2014,07,05,02,19,12.60
2014,07,05,02,20,12.60
2014,07,05,02,21,12.60
2014,07,05,02,22,12.50
2014,07,05,02,23,12.50
2014,07,05,02,24,12.50
2014,07,05,02,25,12.40
2014,07,05,02,26,12.40
2014,07,05,02,27,12.30
2014,07,05,02,28,12.30
2014,07,05,02,29,12.30
2014,07,05,02,30,12.30
2014,07,05,02,31,12.30
2014,07,05,02,32,12.20
2014,07,05,02,33,12.20
2014,07,05,02,34,12.20
2014,07,05,02,35,12.20
2014,07,05,02,36,12.20
2014,07,05,02,37,12.10
2014,07,05,02,38,12.10
2014,07,05,02,39,12.10
2014,07,05,02,40,12.10
2014,07,05,02,41,12.10
2014,07,05,02,42,12.10
2014,07,05,02,43,12.00
2014,07,05,02,44,12.00
2014,07,05,02,45,12.00
2014,07,05,02,46,12.00
2014,07,05,02,47,12.00
2014,07,05,02,48,12.00
2014,07,05,02,49,12.00
2014,07,05,02,50,12.00
2014,07,05,02,51,12.00
2014,07,05,02,52,12.00
2014,07,05,02,53,12.00
2014,07,05,02,54,11.90
2014,07,05,02,55,11.90
2014,07,05,02,56,11.90
2014,07,05,02,57,11.90
2014,07,05,02,58,11.90
2014,07,05,02,59,11.90
2014,07,05,03,00,11.90
2014,07,05,03,01,11.90
2014,07,05,03,02,11.90
2014,07,05,03,03,11.80
2014,07,05,03,04,11.80
2014,07,05,03,05,11.80
2014,07,05,03,06,11.80
2014,07,05,03,07,11.80
2014,07,05,03,08,11.80
2014,07,05,03,09,11.80
2014,07,05,03,10,11.80
2014,07,05,03,11,11.80
2014,07,05,03,12,11.80
2014,07,05,03,13,11.80
2014,07,05,03,14,11.80
2014,07,05,03,15,11.80
2014,07,05,03,16,11.80
2014,07,05,03,17,11.80
2014,07,05,03,18,11.80
2014,07,05,03,19,11.80
2014,07,05,03,20,11.80
2014,07,05,03,21,11.80
2014,07,05,03,22,11.80
2014,07,05,03,23,11.80
2014,07,05,03,24,11.80
2014,07,05,03,25,11.70
2014,07,05,03,26,11.70
2014,07,05,03,27,11.70
2014,07,05,03,28,11.70
2014,07,05,03,29,11.70
2014,07,05,03,30,11.70
2014,07,05,03,31,11.60
2014,07,05,03,32,11.60
2014,07,05,03,33,11.60
2014,07,05,03,34,11.60
2014,07,05,03,35,11.60
2014,07,05,03,36,11.60
2014,07,05,03,37,11.60
2014,07,05,03,38,11.60
2014,07,05,03,39,11.60
2014,07,05,03,40,11.60
2014,07,05,03,41,11.60
2014,07,05,03,42,11.60
2014,07,05,03,43,11.60
2014,07,05,03,44,11.60
2014,07,05,03,45,11.60
2014,07,05,03,46,11.60
2014,07,05,03,47,11.60
2014,07,05,03,48,11.60
2014,07,05,03,49,11.70
2014,07,05,03,50,11.70
2014,07,05,03,51,11.70
2014,07,05,03,52,11.80
2014,07,05,03,53,11.80
2014,07,05,03,54,11.80
2014,07,05,03,55,11.80
2014,07,05,03,56,11.80
2014,07,05,03,57,11.90
2014,07,05,03,58,11.90
2014,07,05,03,59,11.90
2014,07,05,04,00,12.00
2014,07,05,04,01,12.00
2014,07,05,04,02,12.00
2014,07,05,04,03,12.10
2014,07,05,04,04,12.10
2014,07,05,04,05,12.10
2014,07,05,04,06,12.20
2014,07,05,04,07,12.20
2014,07,05,04,08,12.20
2014,07,05,04,09,12.20
2014,07,05,04,10,12.20
2014,07,05,04,11,12.20
2014,07,05,04,12,12.20
2014,07,05,04,13,12.20
2014,07,05,04,14,12.20
2014,07,05,04,15,12.20
2014,07,05,04,16,12.20
2014,07,05,04,17,12.20
2014,07,05,04,18,12.20
2014,07,05,04,19,12.10
2014,07,05,04,20,12.10
2014,07,05,04,21,12.10
2014,07,05,04,22,12.10
2014,07,05,04,23,12.00
2014,07,05,04,24,12.00
2014,07,05,04,25,12.00
2014,07,05,04,26,12.00
2014,07,05,04,27,12.00
2014,07,05,04,28,11.90
2014,07,05,04,29,11.90
2014,07,05,04,30,11.90
2014,07,05,04,31,11.90
2014,07,05,04,32,11.90
2014,07,05,04,33,11.90
2014,07,05,04,34,11.90
2014,07,05,04,35,11.90
2014,07,05,04,36,11.90
2014,07,05,04,37,11.90
2014,07,05,04,38,11.90
2014,07,05,04,39,11.90
2014,07,05,04,40,11.90
2014,07,05,04,41,11.90
2014,07,05,04,42,11.90
2014,07,05,04,43,11.90
2014,07,05,04,44,11.90
2014,07,05,04,45,11.80
2014,07,05,04,46,11.80
2014,07,05,04,47,11.80
2014,07,05,04,48,11.80
2014,07,05,04,49,11.80
2014,07,05,04,50,11.80
2014,07,05,04,51,11.80
2014,07,05,04,52,11.80
2014,07,05,04,53,11.80
2014,07,05,04,54,11.80
2014,07,05,04,55,11.80
2014,07,05,04,56,11.80
2014,07,05,04,57,11.80
2014,07,05,04,58,11.80
2014,07,05,04,59,11.80
2014,07,05,05,00,11.80
2014,07,05,05,01,11.70
2014,07,05,05,02,11.70
2014,07,05,05,03,11.70
2014,07,05,05,04,11.70
2014,07,05,05,05,11.70
2014,07,05,05,06,11.70
2014,07,05,05,07,11.70
2014,07,05,05,08,11.70
2014,07,05,05,09,11.70
2014,07,05,05,10,11.70
2014,07,05,05,11,11.70
2014,07,05,05,12,11.70
2014,07,05,05,13,11.70
2014,07,05,05,14,11.70
2014,07,05,05,15,11.70
2014,07,05,05,16,11.70
2014,07,05,05,17,11.70
2014,07,05,05,18,11.80
2014,07,05,05,19,11.80
2014,07,05,05,20,11.80
2014,07,05,05,21,11.80
2014,07,05,05,22,11.80
2014,07,05,05,23,11.80
2014,07,05,05,24,11.80
2014,07,05,05,25,11.80
2014,07,05,05,26,11.80
2014,07,05,05,27,11.80
2014,07,05,05,28,11.80
2014,07,05,05,29,11.80
2014,07,05,05,30,11.80
2014,07,05,05,31,11.80
2014,07,05,05,32,11.80
2014,07,05,05,33,11.80
2014,07,05,05,34,11.80
2014,07,05,05,35,11.80
2014,07,05,05,36,11.80
2014,07,05,05,37,11.80
2014,07,05,05,38,11.80
2014,07,05,05,39,11.80
2014,07,05,05,40,11.80
2014,07,05,05,41,11.90
2014,07,05,05,42,11.90
2014,07,05,05,43,11.90
2014,07,05,05,44,11.90
2014,07,05,05,45,11.90
2014,07,05,05,46,11.90
2014,07,05,05,47,11.90
2014,07,05,05,48,11.90
2014,07,05,05,49,11.90
2014,07,05,05,50,11.90
2014,07,05,05,51,11.90
2014,07,05,05,52,11.90
2014,07,05,05,53,11.90
2014,07,05,05,54,11.90
2014,07,05,05,55,11.90
2014,07,05,05,56,11.90
2014,07,05,05,57,11.90
2014,07,05,05,58,11.90
2014,07,05,05,59,11.90
2014,07,05,06,00,11.90
2014,07,05,06,01,11.90
2014,07,05,06,02,11.90
2014,07,05,06,03,11.90
2014,07,05,06,04,11.90
2014,07,05,06,05,11.90
2014,07,05,06,06,11.90
2014,07,05,06,07,11.90
2014,07,05,06,08,12.00
2014,07,05,06,09,12.00
2014,07,05,06,10,12.00
2014,07,05,06,11,12.00
2014,07,05,06,12,12.00
2014,07,05,06,13,12.00
2014,07,05,06,14,12.00
2014,07,05,06,15,12.00
2014,07,05,06,16,12.00
2014,07,05,06,17,12.00
2014,07,05,06,18,12.10
2014,07,05,06,19,12.10
2014,07,05,06,20,12.10
2014,07,05,06,21,12.10
2014,07,05,06,22,12.10
2014,07,05,06,23,12.10
2014,07,05,06,24,12.10
2014,07,05,06,25,12.20
2014,07,05,06,26,12.20
2014,07,05,06,27,12.20
2014,07,05,06,28,12.20
2014,07,05,06,29,12.20
2014,07,05,06,30,12.30
2014,07,05,06,31,12.30
2014,07,05,06,32,12.30
2014,07,05,06,33,12.30
2014,07,05,06,34,12.40
2014,07,05,06,35,12.40
2014,07,05,06,36,12.40
2014,07,05,06,37,12.40
2014,07,05,06,38,12.30
2014,07,05,06,39,12.30
2014,07,05,06,40,12.30
2014,07,05,06,41,12.30
2014,07,05,06,42,12.30
2014,07,05,06,43,12.30
2014,07,05,06,44,12.30
2014,07,05,06,45,12.30
2014,07,05,06,46,12.30
2014,07,05,06,47,12.30
2014,07,05,06,48,12.30
2014,07,05,06,49,12.30
2014,07,05,06,50,12.30
2014,07,05,06,51,12.30
2014,07,05,06,52,12.30
2014,07,05,06,53,12.30
2014,07,05,06,54,12.30
2014,07,05,06,55,12.30
2014,07,05,06,56,12.30
2014,07,05,06,57,12.20
2014,07,05,06,58,12.20
2014,07,05,06,59,12.20
2014,07,05,07,00,12.20
2014,07,05,07,01,12.20
2014,07,05,07,02,12.20
2014,07,05,07,03,12.20
2014,07,05,07,04,12.30
2014,07,05,07,05,12.30
2014,07,05,07,06,12.20
2014,07,05,07,07,12.20
2014,07,05,07,08,12.20
2014,07,05,07,09,12.20
2014,07,05,07,10,12.20
2014,07,05,07,11,12.20
2014,07,05,07,12,12.20
2014,07,05,07,13,12.10
2014,07,05,07,14,12.10
2014,07,05,07,15,12.10
2014,07,05,07,16,12.10
2014,07,05,07,17,12.00
2014,07,05,07,18,12.00
2014,07,05,07,19,12.00
2014,07,05,07,20,12.00
2014,07,05,07,21,12.00
2014,07,05,07,22,12.00
2014,07,05,07,23,12.00
2014,07,05,07,24,12.00
2014,07,05,07,25,12.00
2014,07,05,07,26,12.00
2014,07,05,07,27,12.00
2014,07,05,07,28,11.90
2014,07,05,07,29,11.90
2014,07,05,07,30,12.00
2014,07,05,07,31,12.00
2014,07,05,07,32,12.00
2014,07,05,07,33,12.10
2014,07,05,07,34,12.10
2014,07,05,07,35,12.10
2014,07,05,07,36,12.10
2014,07,05,07,37,12.00
2014,07,05,07,38,12.00
2014,07,05,07,39,12.00
2014,07,05,07,40,12.00
2014,07,05,07,41,12.00
2014,07,05,07,42,12.00
2014,07,05,07,43,12.00
2014,07,05,07,44,12.10
2014,07,05,07,45,12.10
2014,07,05,07,46,12.20
2014,07,05,07,47,12.30
2014,07,05,07,48,12.30
2014,07,05,07,49,12.40
2014,07,05,07,50,12.40
2014,07,05,07,51,12.50
2014,07,05,07,52,12.50
2014,07,05,07,53,12.50
2014,07,05,07,54,12.50
2014,07,05,07,55,12.50
2014,07,05,07,56,12.50
2014,07,05,07,57,12.50
2014,07,05,07,58,12.40
2014,07,05,07,59,12.40
2014,07,05,08,00,12.40
2014,07,05,08,01,12.40
2014,07,05,08,02,12.50
2014,07,05,08,03,12.50
2014,07,05,08,04,12.50
2014,07,05,08,05,12.50
2014,07,05,08,06,12.50
2014,07,05,08,07,12.50
2014,07,05,08,08,12.50
2014,07,05,08,09,12.50
2014,07,05,08,10,12.40
2014,07,05,08,11,12.30
2014,07,05,08,12,12.30
2014,07,05,08,13,12.30
2014,07,05,08,14,12.20
2014,07,05,08,15,12.20
2014,07,05,08,16,12.20
2014,07,05,08,17,12.20
2014,07,05,08,18,12.20
2014,07,05,08,19,12.20
2014,07,05,08,20,12.20
2014,07,05,08,21,12.30
2014,07,05,08,22,12.30
2014,07,05,08,23,12.30
2014,07,05,08,24,12.30
2014,07,05,08,25,12.30
2014,07,05,08,26,12.30
2014,07,05,08,27,12.30
2014,07,05,08,28,12.30
2014,07,05,08,29,12.30
2014,07,05,08,30,12.30
2014,07,05,08,31,12.30
2014,07,05,08,32,12.30
2014,07,05,08,33,12.30
2014,07,05,08,34,12.30
2014,07,05,08,35,12.30
2014,07,05,08,36,12.30
2014,07,05,08,37,12.30
2014,07,05,08,38,12.30
2014,07,05,08,39,12.30
2014,07,05,08,40,12.30
2014,07,05,08,41,12.30
2014,07,05,08,42,12.20
2014,07,05,08,43,12.20
2014,07,05,08,44,12.20
2014,07,05,08,45,12.30
2014,07,05,08,46,12.30
2014,07,05,08,47,12.30
2014,07,05,08,48,12.30
2014,07,05,08,49,12.30
2014,07,05,08,50,12.30
2014,07,05,08,51,12.30
2014,07,05,08,52,12.30
2014,07,05,08,53,12.30
2014,07,05,08,54,12.30
2014,07,05,08,55,12.30
2014,07,05,08,56,12.30
2014,07,05,08,57,12.30
2014,07,05,08,58,12.30
2014,07,05,08,59,12.30
2014,07,05,09,00,12.20
2014,07,05,09,01,12.20
2014,07,05,09,02,12.20
2014,07,05,09,03,12.10
2014,07,05,09,04,12.10
2014,07,05,09,05,12.20
2014,07,05,09,06,12.20
2014,07,05,09,07,12.20
2014,07,05,09,08,12.20
2014,07,05,09,09,12.20
2014,07,05,09,10,12.20
2014,07,05,09,11,12.20
2014,07,05,09,12,12.20
2014,07,05,09,13,12.20
2014,07,05,09,14,12.20
2014,07,05,09,15,12.20
2014,07,05,09,16,12.20
2014,07,05,09,17,12.20
2014,07,05,09,18,12.20
2014,07,05,09,19,12.30
2014,07,05,09,20,12.30
2014,07,05,09,21,12.30
2014,07,05,09,22,12.30
2014,07,05,09,23,12.30
2014,07,05,09,24,12.30
2014,07,05,09,25,12.30
2014,07,05,09,26,12.30
2014,07,05,09,27,12.40
2014,07,05,09,28,12.40
2014,07,05,09,29,12.50
2014,07,05,09,30,12.50
2014,07,05,09,31,12.50
2014,07,05,09,32,12.50
2014,07,05,09,33,12.50
2014,07,05,09,34,12.50
2014,07,05,09,35,12.50
2014,07,05,09,36,12.40
2014,07,05,09,37,12.40
2014,07,05,09,38,12.40
2014,07,05,09,39,12.30
2014,07,05,09,40,12.40
2014,07,05,09,41,12.40
2014,07,05,09,42,12.50
2014,07,05,09,43,12.50
2014,07,05,09,44,12.50
2014,07,05,09,45,12.50
2014,07,05,09,46,12.50
2014,07,05,09,47,12.50
2014,07,05,09,48,12.50
2014,07,05,09,49,12.60
2014,07,05,09,50,12.70
2014,07,05,09,51,12.80
2014,07,05,09,52,12.80
2014,07,05,09,53,12.80
2014,07,05,09,54,12.80
2014,07,05,09,55,12.80
2014,07,05,09,56,12.90
2014,07,05,09,57,12.90
2014,07,05,09,58,12.90
2014,07,05,09,59,12.90
2014,07,05,10,00,12.80
2014,07,05,10,01,12.80
2014,07,05,10,02,12.80
2014,07,05,10,03,12.70
2014,07,05,10,04,12.70
2014,07,05,10,05,12.70
2014,07,05,10,06,12.60
2014,07,05,10,07,12.60
2014,07,05,10,08,12.50
2014,07,05,10,09,12.40
2014,07,05,10,10,12.40
2014,07,05,10,11,12.40
2014,07,05,10,12,12.30
2014,07,05,10,13,12.30
2014,07,05,10,14,12.30
2014,07,05,10,15,12.30
2014,07,05,10,16,12.30
2014,07,05,10,17,12.30
2014,07,05,10,18,12.40
2014,07,05,10,19,12.40
2014,07,05,10,20,12.40
2014,07,05,10,21,12.40
2014,07,05,10,22,12.40
2014,07,05,10,23,12.40
2014,07,05,10,24,12.40
2014,07,05,10,25,12.40
2014,07,05,10,26,12.40
2014,07,05,10,27,12.40
2014,07,05,10,28,12.40
2014,07,05,10,29,12.40
2014,07,05,10,30,12.40
2014,07,05,10,31,12.40
2014,07,05,10,32,12.40
2014,07,05,10,33,12.40
2014,07,05,10,34,12.40
2014,07,05,10,35,12.50
2014,07,05,10,36,12.50
2014,07,05,10,37,12.50
2014,07,05,10,38,12.50
2014,07,05,10,39,12.60
2014,07,05,10,40,12.60
2014,07,05,10,41,12.60
2014,07,05,10,42,12.60
2014,07,05,10,43,12.60
2014,07,05,10,44,12.70
2014,07,05,10,45,12.70
2014,07,05,10,46,12.80
2014,07,05,10,47,12.80
2014,07,05,10,48,12.80
2014,07,05,10,49,12.90
2014,07,05,10,50,12.90
2014,07,05,10,51,12.90
2014,07,05,10,52,13.00
2014,07,05,10,53,13.00
2014,07,05,10,54,13.10
2014,07,05,10,55,13.10
2014,07,05,10,56,13.20
2014,07,05,10,57,13.20
2014,07,05,10,58,13.30
2014,07,05,10,59,13.30
2014,07,05,11,00,13.30
2014,07,05,11,01,13.40
2014,07,05,11,02,13.40
2014,07,05,11,03,13.50
2014,07,05,11,04,13.50
2014,07,05,11,05,13.50
2014,07,05,11,06,13.50
2014,07,05,11,07,13.50
2014,07,05,11,08,13.50
2014,07,05,11,09,13.50
2014,07,05,11,10,13.60
2014,07,05,11,11,13.60
2014,07,05,11,12,13.60
2014,07,05,11,13,13.60
2014,07,05,11,14,13.70
2014,07,05,11,15,13.70
2014,07,05,11,16,13.70
2014,07,05,11,17,13.80
2014,07,05,11,18,13.80
2014,07,05,11,19,13.80
2014,07,05,11,20,13.80
2014,07,05,11,21,13.90
2014,07,05,11,22,13.90
2014,07,05,11,23,14.00
2014,07,05,11,24,14.00
2014,07,05,11,25,14.10
2014,07,05,11,26,14.20
2014,07,05,11,27,14.20
2014,07,05,11,28,14.30
2014,07,05,11,29,14.20
2014,07,05,11,30,14.20
2014,07,05,11,31,14.30
2014,07,05,11,32,14.40
2014,07,05,11,33,14.50
2014,07,05,11,34,14.50
2014,07,05,11,35,14.60
2014,07,05,11,36,14.60
2014,07,05,11,37,14.60
2014,07,05,11,38,14.60
2014,07,05,11,39,14.70
2014,07,05,11,40,14.70
2014,07,05,11,41,14.80
2014,07,05,11,42,14.80
2014,07,05,11,43,14.70
2014,07,05,11,44,14.70
2014,07,05,11,45,14.70
2014,07,05,11,46,14.60
2014,07,05,11,47,14.50
2014,07,05,11,48,14.50
2014,07,05,11,49,14.30
2014,07,05,11,50,14.20
2014,07,05,11,51,14.20
2014,07,05,11,52,14.20
2014,07,05,11,53,14.20
2014,07,05,11,54,14.10
2014,07,05,11,55,14.10
2014,07,05,11,56,14.10
2014,07,05,11,57,14.10
2014,07,05,11,58,14.10
2014,07,05,11,59,14.10
2014,07,05,12,00,14.10
2014,07,05,12,01,14.00
2014,07,05,12,02,13.90
2014,07,05,12,03,13.90
2014,07,05,12,04,13.80
2014,07,05,12,05,13.70
2014,07,05,12,06,13.70
2014,07,05,12,07,13.70
2014,07,05,12,08,13.70
2014,07,05,12,09,13.70
2014,07,05,12,10,13.60
2014,07,05,12,11,13.60
2014,07,05,12,12,13.60
2014,07,05,12,13,13.60
2014,07,05,12,14,13.60
2014,07,05,12,15,13.70
2014,07,05,12,16,13.70
2014,07,05,12,17,13.70
2014,07,05,12,18,13.80
2014,07,05,12,19,13.90
2014,07,05,12,20,13.90
2014,07,05,12,21,14.00
2014,07,05,12,22,14.00
2014,07,05,12,23,14.00
2014,07,05,12,24,14.00
2014,07,05,12,25,14.00
2014,07,05,12,26,14.00
2014,07,05,12,27,14.10
2014,07,05,12,28,14.10
2014,07,05,12,29,14.10
2014,07,05,12,30,14.20
2014,07,05,12,31,14.20
2014,07,05,12,32,14.20
2014,07,05,12,33,14.20
2014,07,05,12,34,14.20
2014,07,05,12,35,14.20
2014,07,05,12,36,14.20
2014,07,05,12,37,14.20
2014,07,05,12,38,14.20
2014,07,05,12,39,14.20
2014,07,05,12,40,14.20
2014,07,05,12,41,14.30
2014,07,05,12,42,14.40
2014,07,05,12,43,14.40
2014,07,05,12,44,14.50
2014,07,05,12,45,14.50
2014,07,05,12,46,14.50
2014,07,05,12,47,14.60
2014,07,05,12,48,14.60
2014,07,05,12,49,14.60
2014,07,05,12,50,14.60
2014,07,05,12,51,14.70
2014,07,05,12,52,14.70
2014,07,05,12,53,14.70
2014,07,05,12,54,14.70
2014,07,05,12,55,14.70
2014,07,05,12,56,14.70
2014,07,05,12,57,14.70
2014,07,05,12,58,14.80
2014,07,05,12,59,14.80
2014,07,05,13,00,14.90
2014,07,05,13,01,15.00
2014,07,05,13,02,15.00
2014,07,05,13,03,15.10
2014,07,05,13,04,15.20
2014,07,05,13,05,15.30
2014,07,05,13,06,15.30
2014,07,05,13,07,15.30
2014,07,05,13,08,15.40
2014,07,05,13,09,15.40
2014,07,05,13,10,15.50
2014,07,05,13,11,15.50
2014,07,05,13,12,15.60
2014,07,05,13,13,15.70
2014,07,05,13,14,15.70
2014,07,05,13,15,15.80
2014,07,05,13,16,15.80
2014,07,05,13,17,15.90
2014,07,05,13,18,16.10
2014,07,05,13,19,16.10
2014,07,05,13,20,16.30
2014,07,05,13,21,16.40
2014,07,05,13,22,16.40
2014,07,05,13,23,16.50
2014,07,05,13,24,16.60
2014,07,05,13,25,16.70
2014,07,05,13,26,16.80
2014,07,05,13,27,16.90
2014,07,05,13,28,16.90
2014,07,05,13,29,16.90
2014,07,05,13,30,16.90
2014,07,05,13,31,16.90
2014,07,05,13,32,16.90
2014,07,05,13,33,16.80
2014,07,05,13,34,16.80
2014,07,05,13,35,16.80
2014,07,05,13,36,16.90
2014,07,05,13,37,16.90
2014,07,05,13,38,17.00
2014,07,05,13,39,17.00
2014,07,05,13,40,17.10
2014,07,05,13,41,17.20
2014,07,05,13,42,17.20
2014,07,05,13,43,17.20
2014,07,05,13,44,17.30
2014,07,05,13,45,17.30
2014,07,05,13,46,17.30
2014,07,05,13,47,17.30
2014,07,05,13,48,17.20
2014,07,05,13,49,17.20
2014,07,05,13,50,17.20
2014,07,05,13,51,17.20
2014,07,05,13,52,17.20
2014,07,05,13,53,17.10
2014,07,05,13,54,17.10
2014,07,05,13,55,17.10
2014,07,05,13,56,17.10
2014,07,05,13,57,17.10
2014,07,05,13,58,17.10
2014,07,05,13,59,17.10
2014,07,05,14,00,17.10
2014,07,05,14,01,17.10
2014,07,05,14,02,17.10
2014,07,05,14,03,17.20
2014,07,05,14,04,17.20
2014,07,05,14,05,17.30
2014,07,05,14,06,17.30
2014,07,05,14,07,17.30
2014,07,05,14,08,17.30
2014,07,05,14,09,17.30
2014,07,05,14,10,17.30
2014,07,05,14,11,17.20
2014,07,05,14,12,17.20
2014,07,05,14,13,17.10
2014,07,05,14,14,17.00
2014,07,05,14,15,17.00
2014,07,05,14,16,17.00
2014,07,05,14,17,17.00
2014,07,05,14,18,17.00
2014,07,05,14,19,17.00
2014,07,05,14,20,17.00
2014,07,05,14,21,17.00
2014,07,05,14,22,17.00
2014,07,05,14,23,17.10
2014,07,05,14,24,17.10
2014,07,05,14,25,17.10
2014,07,05,14,26,17.00
2014,07,05,14,27,17.00
2014,07,05,14,28,16.90
2014,07,05,14,29,16.80
2014,07,05,14,30,16.70
2014,07,05,14,31,16.60
2014,07,05,14,32,16.50
2014,07,05,14,33,16.40
2014,07,05,14,34,16.30
2014,07,05,14,35,16.20
2014,07,05,14,36,16.00
2014,07,05,14,37,15.80
2014,07,05,14,38,15.80
2014,07,05,14,39,15.60
2014,07,05,14,40,15.50
2014,07,05,14,41,15.40
2014,07,05,14,42,15.20
2014,07,05,14,43,15.10
2014,07,05,14,44,15.00
2014,07,05,14,45,14.90
2014,07,05,14,46,14.80
2014,07,05,14,47,14.70
2014,07,05,14,48,14.60
2014,07,05,14,49,14.50
2014,07,05,14,50,14.40
2014,07,05,14,51,14.40
2014,07,05,14,52,14.40
2014,07,05,14,53,14.40
2014,07,05,14,54,14.50
2014,07,05,14,55,14.60
2014,07,05,14,56,14.60
2014,07,05,14,57,14.70
2014,07,05,14,58,14.70
2014,07,05,14,59,14.60
2014,07,05,15,00,14.60
2014,07,05,15,01,14.60
2014,07,05,15,02,14.60
2014,07,05,15,03,14.70
2014,07,05,15,04,14.70
2014,07,05,15,05,14.70
2014,07,05,15,06,14.70
2014,07,05,15,07,14.70
2014,07,05,15,08,14.60
2014,07,05,15,09,14.60
2014,07,05,15,10,14.70
2014,07,05,15,11,14.70
2014,07,05,15,12,14.70
2014,07,05,15,13,14.70
2014,07,05,15,14,14.70
2014,07,05,15,15,14.70
2014,07,05,15,16,14.80
2014,07,05,15,17,14.80
2014,07,05,15,18,14.80
2014,07,05,15,19,14.80
2014,07,05,15,20,14.80
2014,07,05,15,21,14.80
2014,07,05,15,22,14.80
2014,07,05,15,23,14.80
2014,07,05,15,24,14.80
2014,07,05,15,25,14.80
2014,07,05,15,26,14.80
2014,07,05,15,27,14.80
2014,07,05,15,28,14.80
2014,07,05,15,29,14.80
2014,07,05,15,30,14.90
2014,07,05,15,31,15.00
2014,07,05,15,32,15.00
2014,07,05,15,33,15.10
2014,07,05,15,34,15.20
2014,07,05,15,35,15.20
2014,07,05,15,36,15.20
2014,07,05,15,37,15.30
2014,07,05,15,38,15.30
2014,07,05,15,39,15.30
2014,07,05,15,40,15.30
2014,07,05,15,41,15.30
2014,07,05,15,42,15.30
2014,07,05,15,43,15.40
2014,07,05,15,44,15.40
2014,07,05,15,45,15.40
2014,07,05,15,46,15.40
2014,07,05,15,47,15.30
2014,07,05,15,48,15.30
2014,07,05,15,49,15.30
2014,07,05,15,50,15.30
2014,07,05,15,51,15.30
2014,07,05,15,52,15.30
2014,07,05,15,53,15.30
2014,07,05,15,54,15.30
2014,07,05,15,55,15.40
2014,07,05,15,56,15.50
2014,07,05,15,57,15.60
2014,07,05,15,58,15.70
2014,07,05,15,59,15.80
2014,07,05,16,00,15.80
2014,07,05,16,01,15.80
2014,07,05,16,02,15.80
2014,07,05,16,03,15.70
2014,07,05,16,04,15.60
2014,07,05,16,05,15.50
2014,07,05,16,06,15.50
2014,07,05,16,07,15.50
2014,07,05,16,08,15.40
2014,07,05,16,09,15.40
2014,07,05,16,10,15.40
2014,07,05,16,11,15.50
2014,07,05,16,12,15.50
2014,07,05,16,13,15.50
2014,07,05,16,14,15.50
2014,07,05,16,15,15.50
2014,07,05,16,16,15.50
2014,07,05,16,17,15.50
2014,07,05,16,18,15.50
2014,07,05,16,19,15.50
2014,07,05,16,20,15.50
2014,07,05,16,21,15.50
2014,07,05,16,22,15.60
2014,07,05,16,23,15.60
2014,07,05,16,24,15.60
2014,07,05,16,25,15.60
2014,07,05,16,26,15.70
2014,07,05,16,27,15.70
2014,07,05,16,28,15.70
2014,07,05,16,29,15.70
2014,07,05,16,30,15.70
2014,07,05,16,31,15.70
2014,07,05,16,32,15.70
2014,07,05,16,33,15.70
2014,07,05,16,34,15.80
2014,07,05,16,35,15.80
2014,07,05,16,36,15.80
2014,07,05,16,37,15.90
2014,07,05,16,38,15.90
2014,07,05,16,39,16.00
2014,07,05,16,40,16.10
2014,07,05,16,41,16.10
2014,07,05,16,42,16.10
2014,07,05,16,43,16.20
2014,07,05,16,44,16.20
2014,07,05,16,45,16.20
2014,07,05,16,46,16.20
2014,07,05,16,47,16.20
2014,07,05,16,48,16.20
2014,07,05,16,49,16.20
2014,07,05,16,50,16.30
2014,07,05,16,51,16.30
2014,07,05,16,52,16.30
2014,07,05,16,53,16.40
2014,07,05,16,54,16.40
2014,07,05,16,55,16.40
2014,07,05,16,56,16.40
2014,07,05,16,57,16.40
2014,07,05,16,58,16.40
2014,07,05,16,59,16.40
2014,07,05,17,00,16.40
2014,07,05,17,01,16.40
2014,07,05,17,02,16.40
2014,07,05,17,03,16.40
2014,07,05,17,04,16.40
2014,07,05,17,05,16.40
2014,07,05,17,06,16.40
2014,07,05,17,07,16.40
2014,07,05,17,08,16.40
2014,07,05,17,09,16.40
2014,07,05,17,10,16.50
2014,07,05,17,11,16.60
2014,07,05,17,12,16.60
2014,07,05,17,13,16.50
2014,07,05,17,14,16.40
2014,07,05,17,15,16.30
2014,07,05,17,16,16.30
2014,07,05,17,17,16.20
2014,07,05,17,18,16.20
2014,07,05,17,19,16.20